Presure
274 275 271 269 271 263 251 251 256 254 244 236 253 252 227 220 220 223 225 227 229 229 236 227 223 233 233 240 247 259 263 260 262 247 264 258 256 282 273 300 309 278 311 306 274 269 279 262 267 266 291 287 267 263
275 276 270 261 264 266 272 254 247 234 263 238 262 250 247 229 218 227 222 220 230 225 223 249 239 243 255 239 261 259 256 258 252 267 262 245 266 274 260 275 298 293 274 306 292 266 259 272 264 258 269 270 271 286
280 271 275 264 263 261 258 251 263 250 243 247 239 246 252 242 243 236 235 228 235 254 233 227 246 251 228 244 251 254 259 254 250 264 254 277 286 269 255 270 289 293 289 268 292 313 277 265 266 265 263 265 261 268
294 269 277 268 256 260 263 251 245 252 240 246 253 241 238 245 247 248 252 243 255 242 239 249 246 253 254 252 244 254 250 251 268 254 272 280 277 258 249 264 285 296 290 292 271 269 297 291 269 272 268 269 269 268
314 274 275 267 266 262 264 259 263 266 266 259 243 243 244 244 242 249 233 232 233 232 244 249 252 249 241 260 258 256 257 264 257 261 262 251 254 258 254 260 278 292 295 298 305 274 272 274 290 307 303 270 273 275
320 289 271 275 264 256 261 264 260 265 262 260 260 255 244 235 232 238 260 264 254 253 255 247 247 251 261 256 257 260 261 259 246 267 260 249 254 252 264 269 282 315 303 282 300 309 280 272 271 275 280 290 301 372
324 317 282 269 269 262 255 259 255 252 251 251 253 255 259 255 255 258 256 248 248 252 247 245 248 256 258 261 265 261 259 246 248 272 254 248 253 252 262 277 309 324 313 290 284 295 302 298 275 272 274 274 283 388
339 315 311 279 270 266 265 258 255 253 249 249 252 255 254 252 255 247 246 244 251 247 249 255 256 261 257 262 247 244 245 255 266 269 253 252 253 252 273 301 329 318 309 286 283 296 293 298 293 276 274 274 272 362
343 338 317 313 283 271 271 264 258 258 252 250 251 251 250 252 256 251 249 250 250 250 251 258 264 260 262 245 241 250 267 270 272 253 253 254 254 268 308 325 322 320 318 310 309 298 286 299 301 290 277 273 281 280
347 343 341 323 329 283 273 263 265 257 255 252 253 254 256 264 254 254 252 255 256 259 261 265 256 247 242 246 256 262 265 264 252 254 254 259 270 321 322 316 312 315 335 308 304 301 284 282 295 296 293 277 276 276
348 346 347 343 344 332 299 255 258 268 268 261 255 254 256 254 256 257 261 256 255 261 262 262 246 248 253 263 264 258 253 252 258 251 268 278 326 323 316 309 303 315 318 318 309 294 294 296 304 311 296 287 278 274
342 344 342 342 353 346 352 307 257 266 271 273 268 265 263 264 259 258 257 258 251 248 246 251 256 264 263 262 253 254 254 253 261 269 281 336 322 312 307 298 302 304 303 305 307 309 309 309 309 309 305 292 293 275
375 382 379 349 342 352 358 346 315 264 251 262 276 274 272 270 267 264 254 248 250 255 262 155 262 259 164 254 255 256 255 269 266 289 334 325 312 303 295 289 286 288 297 302 300 299 299 299 299 300 301 302 303 304
383 370 371 377 380 349 351 357 340 314 301 269 262 252 262 255 248 267 259 260 264 264 259 210 179 157 243 266 263 260 268 270 337 332 322 316 305 298 293 282 273 276 297 308 312 314 313 312 311 312 313 314 317 322
386 393 391 394 410 400 349 354 351 339 316 308 303 269 262 258 252 251 250 253 214 256 253 252 250 258 262 258 265 274 312 328 329 318 312 307 302 297 287 297 319 305 299 307 329 329 328 333 338 344 350 358 366 376
369 384 392 380 379 391 342 343 349 351 347 328 315 305 301 289 266 253 168 199 257 195 200 260 264 264 269 282 313 334 334 329 317 312 305 298 288 323 299 306 313 298 287 286 288 305 303 310 326 345 355 361 366 369
354 358 364 377 380 377 343 338 340 347 350 345 328 312 307 305 301 296 292 283 271 266 272 273 283 293 326 330 334 335 328 316 312 301 308 310 289 309 288 268 274 289 291 285 288 297 299 300 312 319 327 355 369 378
354 355 352 352 354 360 361 340 340 339 340 336 316 331 321 314 307 302 300 297 294 295 303 337 336 330 334 335 332 325 316 303 300 305 293 292 277 275 286 263 263 265 273 277 277 278 275 278 288 297 312 315 340 356
350 349 354 354 350 351 355 359 357 341 333 333 336 335 333 331 332 322 337 337 336 334 334 341 336 332 330 107 318 316 299 312 291 285 264 276 276 263 264 264 258 269 269 267 268 270 274 275 285 287 289 303 311 323
343 345 345 348 353 353 351 349 347 346 351 350 343 344 341 343 340 341 342 340 346 350 334 324 326 323 326 316 300 316 293 281 264 273 273 240 260 245 271 263 258 256 263 272 272 271 268 265 262 264 265 283 287 310
336 337 338 339 341 342 343 346 351 352 354 357 354 371 353 366 368 366 342 332 329 317 319 318 302 292 392 332 293 272 257 272 270 257 259 236 126 258 258 261 260 268 268 269 266 263 263 275 279 279 278 283 292 287
327 328 330 333 336 339 340 342 342 342 353 347 357 348 354 349 339 324 320 313 314 304 333 360 333 296 280 264 273 271 251 262 264 263 265 260 258 254 249 242 251 250 247 254 264 271 270 263 270 273 276 277 289 293
326 329 333 332 334 332 344 343 343 337 335 334 328 330 331 324 313 309 308 304 336 326 295 279 263 275 272 253 260 257 264 265 266 258 250 243 242 243 245 243 240 240 244 248 246 252 263 271 271 272 274 276 278 289
330 331 331 331 332 332 335 333 329 324 317 315 312 310 311 313 300 313 338 310 289 265 273 273 255 247 263 248 265 262 258 251 240 238 251 242 238 242 238 234 242 252 259 256 257 258 260 262 268 275 276 276 276 282
328 325 324 320 317 317 312 310 308 311 312 311 313 302 297 320 335 296 281 266 279 265 248 266 260 244 260 259 251 250 238 246 245 240 247 243 239 238 241 248 251 250 249 250 255 255 258 257 263 265 271 277 278 278
320 314 315 309 309 308 308 311 311 311 304 294 314 332 310 285 271 271 275 261 257 267 249 256 259 256 249 245 249 247 244 245 240 239 241 239 240 244 248 248 246 245 243 249 240 255 258 256 260 264 271 277 278 280
307 310 309 311 311 310 309 304 296 306 322 341 290 270 269 274 272 260 265 258 247 258 259 259 255 249 249 247 247 245 242 242 242 237 240 241 238 237 242 240 241 246 245 245 243 246 257 262 261 262 266 280 281 279
313 313 313 327 314 298 306 323 359 310 267 270 268 274 271 259 261 261 256 261 260 259 252 250 251 247 244 241 241 241 245 242 238 237 242 242 236 237 240 243 242 245 248 249 249 249 251 260 261 264 265 278 283 280
298 302 308 319 375 377 361 277 269 277 252 271 252 261 258 257 253 258 256 255 242 250 249 244 242 242 241 241 239 238 238 237 239 244 242 243 243 243 242 241 243 242 249 249 250 249 250 254 261 263 265 275 280 282
334 343 345 319 272 273 269 267 263 260 259 256 253 254 257 253 254 252 240 250 249 244 240 243 242 243 243 245 244 241 241 241 243 246 244 241 244 245 245 245 249 245 247 249 250 251 252 252 258 264 265 276 280 285
271 263 261 257 251 258 263 245 254 256 251 252 253 250 240 245 248 248 249 248 244 241 240 241 240 239 239 239 238 239 242 241 241 240 241 239 241 242 242 248 244 249 246 252 249 253 253 252 261 263 264 277 279 288
261 259 263 252 260 254 254 253 254 255 253 246 248 250 248 241 247 247 242 245 244 244 241 239 237 242 242 241 242 240 242 243 241 242 243 248 244 243 247 248 250 248 251 252 251 254 252 253 263 263 267 278 281 291
259 264 258 260 258 261 247 252 251 253 254 253 250 249 244 235 246 247 244 234 239 244 244 247 248 247 245 242 239 237 242 243 247 249 250 245 242 248 249 249 249 252 253 250 255 253 252 259 264 265 277 280 291 291
Wind_Speed
77 79 77 77 75 77 74 73 69 67 62 55 54 57 58 50 50 50 47 48 49 50 53 47 44 51 53 52 54 50 43 43 39 39 37 34 33 32 26 21 12 20 10 32 34 36 42 33 36 35 40 48 54 58
80 81 78 76 76 74 70 73 71 58 61 59 57 58 62 61 51 55 48 44 51 47 45 56 55 54 52 49 45 41 41 40 40 36 36 33 36 31 26 25 16 18 23 17 41 38 35 44 39 36 41 41 44 51
82 80 81 78 77 76 77 67 69 69 66 68 59 59 60 60 62 61 60 50 53 48 43 44 52 49 42 52 45 42 40 41 41 35 35 35 32 30 29 29 22 17 23 27 25 33 54 44 44 43 43 45 43 47
85 78 82 79 77 77 75 71 66 69 66 67 60 60 56 54 55 52 49 46 46 48 46 49 49 45 43 45 46 42 41 40 33 35 33 31 30 31 29 32 28 24 21 27 32 31 33 44 53 58 52 53 52 53
78 83 82 79 80 79 75 74 70 67 66 67 65 63 62 58 56 55 47 47 48 49 52 48 43 41 44 40 39 40 40 36 34 34 32 31 33 35 36 37 32 29 27 25 29 34 35 36 35 32 46 59 66 68
71 87 82 84 80 77 78 74 69 65 65 62 63 62 63 55 52 56 54 50 48 47 44 43 41 41 37 37 38 38 37 34 36 34 33 32 34 36 37 38 36 31 29 28 28 29 36 36 37 38 38 38 37 42
68 75 86 80 81 79 74 75 69 65 62 61 59 59 57 55 55 50 47 47 42 41 41 40 40 38 37 37 33 32 33 37 37 35 34 34 36 39 41 40 35 29 29 29 29 31 32 34 38 40 39 38 37 22
59 72 77 85 81 78 77 76 72 68 63 61 60 59 56 55 54 49 46 44 45 42 41 43 43 38 37 35 37 38 38 38 37 36 35 36 38 41 42 39 29 28 28 29 31 31 32 34 35 39 39 35 35 22
56 61 71 75 88 77 77 77 74 74 69 66 64 61 59 59 58 54 49 47 45 44 44 44 41 39 39 38 40 40 39 38 37 36 38 39 42 44 41 31 28 26 26 27 29 32 31 33 34 35 39 37 35 31
53 57 62 70 70 84 78 73 78 73 72 67 66 65 64 67 59 55 52 50 49 49 46 43 40 40 40 40 40 39 38 37 37 39 40 41 45 38 30 26 24 23 19 24 27 30 32 32 34 35 36 38 37 35
50 53 58 63 65 68 77 70 71 78 78 73 67 64 63 59 58 54 53 46 45 48 45 43 43 42 42 41 40 38 39 40 40 41 43 43 33 27 24 22 22 18 18 21 27 30 34 36 38 37 36 39 39 37
50 54 57 59 63 65 66 73 71 76 78 77 75 71 66 64 58 53 48 45 47 50 48 47 45 44 42 39 39 41 42 42 43 42 44 29 22 22 19 20 20 20 20 20 22 24 27 30 33 35 37 37 40 40
41 46 52 58 59 60 61 67 74 76 64 67 74 71 68 64 56 50 45 49 56 54 50 16 43 41 15 39 41 41 42 43 42 43 28 21 16 20 17 17 18 19 21 24 26 27 29 31 33 35 38 40 41 42
35 43 47 50 53 59 61 62 67 71 76 72 66 56 59 50 43 52 50 54 53 50 45 26 18 10 40 41 41 41 42 42 28 25 21 17 15 18 18 18 19 22 23 22 22 23 26 28 31 34 36 39 41 43
29 35 39 40 38 43 56 56 60 66 70 70 71 67 59 55 51 50 50 49 32 45 47 43 40 43 42 40 41 42 37 28 24 19 16 13 13 13 15 15 10 11 14 14 15 17 20 23 26 28 31 34 38 40
27 29 35 38 38 38 48 49 53 56 61 65 64 62 63 64 58 51 24 32 51 27 27 45 43 42 43 44 40 28 23 21 13 13 11 9 8 5 3 4 7 10 12 16 20 24 27 29 29 29 31 32 33 34
29 30 30 32 35 38 44 46 47 48 50 54 59 60 59 58 57 58 59 59 55 49 45 44 46 47 35 29 24 20 17 13 13 10 8 6 4 8 6 2 8 16 17 19 22 25 27 31 34 35 37 38 37 35
30 31 32 33 33 34 35 40 39 40 42 46 47 54 55 54 53 53 53 53 50 46 42 32 30 25 23 22 16 16 16 16 12 13 11 13 9 7 12 3 10 13 16 18 21 24 28 32 34 38 39 40 45 43
31 32 32 33 34 32 32 33 34 38 42 43 44 45 45 46 46 46 43 41 33 30 28 24 20 21 20 5 18 20 18 19 18 18 12 13 14 8 11 12 10 16 17 20 23 25 27 31 33 36 39 43 43 46
33 32 32 30 31 31 31 32 35 37 37 37 37 37 36 35 36 34 28 26 27 22 19 22 23 19 21 23 21 26 25 24 18 17 16 10 8 4 12 11 12 15 18 20 22 25 28 31 34 37 40 41 43 48
32 31 31 31 32 34 35 33 32 31 32 34 32 29 29 28 28 27 29 27 27 30 27 23 25 25 18 31 30 27 19 23 19 12 11 10 7 9 10 12 15 18 21 24 27 29 32 35 36 37 37 40 43 44
34 33 32 31 31 31 31 33 33 33 34 31 32 29 27 29 31 32 32 32 30 28 22 23 35 37 36 29 31 28 17 18 16 14 13 11 9 9 9 10 15 18 21 25 29 31 33 34 37 38 41 42 47 48
37 34 32 31 31 30 32 33 33 32 31 30 31 29 32 36 37 36 35 33 27 38 43 41 34 36 34 24 25 21 20 18 17 14 9 2 3 7 12 15 19 23 24 25 29 31 35 38 40 41 44 45 47 53
36 35 33 33 32 32 33 35 35 37 38 38 38 37 37 38 39 35 29 43 46 39 41 41 30 23 30 20 25 23 20 15 7 3 5 2 7 10 13 15 20 19 21 24 29 32 36 40 43 46 47 49 49 52
32 33 34 36 37 39 41 41 40 38 37 37 37 40 39 35 34 49 48 40 45 39 27 35 32 19 27 24 19 16 10 9 6 2 2 6 10 13 16 17 18 20 24 27 32 35 39 40 45 47 50 53 55 55
31 35 34 37 38 38 38 37 37 37 38 38 34 32 47 49 46 45 46 38 34 37 27 28 28 25 21 16 15 12 9 5 1 3 6 9 13 16 17 19 21 24 26 29 29 36 38 41 44 48 54 57 59 60
33 34 38 39 40 40 40 40 39 36 34 31 46 48 45 48 47 38 40 35 25 29 28 26 24 19 17 15 12 9 5 5 5 7 10 13 15 19 22 25 26 30 32 35 35 38 45 46 47 50 55 63 63 63
27 30 31 28 35 37 36 32 25 40 47 48 45 48 46 37 37 35 30 32 29 27 23 19 18 15 13 9 7 7 7 7 9 12 15 17 19 21 24 29 31 34 37 40 42 44 48 53 54 56 59 69 69 68
26 26 27 27 21 23 29 50 46 47 35 44 32 35 33 31 27 30 27 26 17 20 18 15 12 10 9 10 10 10 11 12 15 17 19 21 24 27 28 31 35 37 41 43 46 48 51 55 60 63 65 72 73 73
29 30 33 41 45 45 43 42 40 38 38 35 33 32 32 29 28 26 18 21 19 16 13 13 11 12 13 13 14 15 16 17 20 23 24 25 29 33 34 36 38 39 43 46 49 52 55 58 63 67 69 76 76 78
45 42 41 38 35 38 39 31 34 35 30 30 30 28 21 22 22 19 19 18 16 13 13 14 15 16 17 17 18 20 22 24 25 26 29 30 34 37 39 43 43 45 46 49 50 55 57 59 66 69 72 78 79 82
36 35 37 31 36 31 31 30 30 30 28 23 23 24 23 19 21 20 16 17 16 17 18 19 20 21 21 22 24 26 28 31 32 34 36 38 39 41 44 46 48 49 51 53 55 59 59 63 70 71 76 80 82 84
30 34 30 32 31 33 23 27 24 25 27 26 25 25 21 14 21 21 20 18 20 22 23 23 24 25 26 27 28 29 32 34 37 39 41 41 42 46 48 50 52 54 56 55 61 62 63 70 73 76 82 83 86 86
Wind_Direction
204 206 208 211 215 216 220 223 226 228 231 228 229 226 229 234 238 243 247 252 256 261 265 268 268 276 282 290 294 296 292 290 289 293 298 299 304 312 315 311 288 265 262 219 231 237 231 237 240 241 220 218 220 222
204 205 206 211 215 216 218 220 225 224 224 230 224 229 231 235 238 243 243 247 259 264 264 271 275 280 284 289 289 287 288 285 287 295 295 293 304 304 306 305 297 256 254 238 224 236 243 239 240 243 240 234 227 225
204 205 206 209 213 217 219 219 218 223 230 232 231 232 230 235 239 244 249 251 259 262 264 266 279 278 275 286 283 284 281 283 286 291 292 300 299 297 299 301 298 273 247 251 233 232 232 245 248 248 246 248 241 241
205 207 207 207 213 218 219 222 223 224 226 231 229 231 236 238 244 248 250 256 257 268 271 272 273 271 272 274 279 279 281 280 286 286 296 298 295 294 295 298 296 288 262 245 246 243 235 239 246 249 251 253 253 252
204 207 207 208 210 214 219 222 223 225 224 222 230 233 237 242 247 246 255 259 262 264 268 265 267 269 271 274 274 275 275 280 281 290 289 290 294 295 294 293 292 288 276 263 247 247 244 244 240 241 246 250 254 256
202 206 209 208 210 213 216 221 221 220 224 228 231 233 232 237 243 249 249 245 249 255 256 261 265 268 275 270 271 270 272 275 278 289 284 287 293 293 293 292 293 288 275 269 265 256 248 247 247 249 251 249 253 258
203 206 208 211 210 212 215 219 222 223 225 228 233 236 238 239 243 244 243 249 256 257 260 262 265 271 270 270 271 270 273 274 281 286 282 286 290 291 291 294 299 284 271 267 268 262 258 255 252 255 255 256 264 273
201 206 208 211 213 213 213 217 220 224 227 230 232 234 237 240 243 244 249 254 254 258 263 268 268 270 267 268 263 268 273 278 285 286 283 287 288 287 295 300 291 279 271 267 266 260 262 262 259 260 265 268 269 282
203 204 208 210 213 214 215 216 219 221 224 228 230 234 237 241 243 244 247 251 256 259 262 267 268 266 266 261 267 274 281 285 285 282 286 289 288 294 301 293 286 280 272 264 256 257 263 266 266 262 266 271 274 277
206 205 207 211 210 214 215 216 220 221 223 226 229 233 237 240 242 245 249 253 256 260 263 263 258 258 260 265 272 278 281 282 281 286 288 291 296 300 293 289 288 287 282 264 260 260 264 269 270 268 265 268 272 273
207 206 207 208 209 211 212 214 220 223 226 227 229 231 234 238 241 244 249 251 253 256 257 258 256 260 265 272 275 277 279 281 284 285 292 298 295 287 285 283 283 284 278 270 265 267 268 270 272 271 266 265 270 271
203 203 204 207 209 210 205 210 218 223 225 227 229 231 233 236 237 240 243 247 249 251 250 254 259 264 267 272 273 275 279 280 285 289 297 290 286 280 275 281 286 286 283 280 278 276 276 278 278 278 275 270 267 271
197 197 200 203 205 210 207 202 209 220 223 224 228 231 234 236 238 239 240 242 245 248 252 237 262 265 246 269 272 275 278 286 287 295 285 284 272 269 275 278 285 289 289 286 284 285 287 287 286 285 283 281 278 275
192 195 198 199 202 204 208 206 203 210 219 224 226 228 230 231 232 238 238 243 248 251 254 249 247 255 266 271 273 274 282 287 275 274 279 271 254 261 268 275 288 297 301 301 299 299 298 298 296 293 290 288 285 282
178 182 187 190 187 195 203 205 206 206 212 217 222 227 229 230 230 232 235 241 240 248 253 255 259 263 267 267 274 282 282 270 266 269 263 256 258 265 274 289 309 320 323 332 344 341 334 327 321 316 311 307 301 296
168 171 177 182 187 190 198 201 204 208 212 213 217 221 224 228 230 233 210 231 244 236 242 256 261 264 268 275 277 268 255 255 251 238 239 245 256 274 299 356 42 22 1 353 349 1 350 349 351 348 341 334 326 316
165 165 170 174 182 189 195 199 202 205 209 212 215 218 221 223 226 230 234 240 242 246 253 259 264 268 265 262 255 243 237 217 206 206 221 171 138 118 90 292 12 26 25 11 8 14 9 4 4 1 1 4 356 344
161 165 168 172 179 184 191 195 197 200 203 207 211 218 220 223 225 228 233 238 244 251 254 246 244 246 240 236 226 212 192 182 185 158 144 137 130 98 68 337 23 14 16 14 6 1 355 352 360 4 4 1 8 6
155 159 164 169 173 178 183 187 191 195 198 202 205 209 213 217 220 224 225 229 230 227 225 221 216 210 209 151 185 174 177 160 144 139 162 122 100 86 56 40 14 23 14 6 4 3 360 357 3 0 359 5 2 7
154 154 155 159 161 164 170 176 182 188 190 191 196 199 202 203 206 209 208 205 200 196 185 192 196 187 181 168 169 156 144 139 150 138 123 116 105 246 64 44 20 7 6 7 2 357 352 345 341 341 342 354 355 5
148 149 150 152 155 161 166 168 171 172 174 175 179 175 183 178 172 168 167 170 165 176 181 172 173 169 177 153 144 144 155 138 136 157 125 245 282 70 43 30 16 18 13 7 0 354 351 360 360 355 353 358 1 354
145 146 150 155 157 157 158 159 160 161 164 163 163 166 164 160 156 156 158 164 166 164 169 167 151 144 144 152 141 140 166 143 132 125 118 104 82 55 19 353 6 359 352 357 3 360 354 348 353 353 353 352 358 360
148 149 150 149 149 151 153 152 154 148 144 141 141 144 150 152 154 157 159 159 163 153 144 144 151 142 142 156 149 150 142 139 132 121 112 116 12 14 10 1 350 342 339 338 335 338 353 356 353 351 352 351 352 355
146 145 146 145 143 142 140 139 137 138 141 144 147 151 153 153 154 156 161 150 143 149 144 144 152 159 145 160 143 143 139 136 166 205 125 45 360 356 344 338 334 332 342 335 341 345 348 351 354 353 350 350 348 352
139 138 137 135 134 136 139 143 147 148 149 149 151 153 156 157 158 144 142 146 143 147 154 150 149 163 149 150 151 144 183 152 150 98 6 351 336 330 326 317 319 328 333 339 345 343 346 343 347 348 350 350 348 348
132 132 136 140 142 144 146 147 148 149 149 151 157 160 148 142 143 145 146 150 153 150 156 154 154 157 158 160 152 162 157 148 141 322 318 315 313 311 314 320 324 326 328 334 328 341 340 338 341 344 347 348 346 346
141 145 149 151 152 151 150 150 150 154 158 160 144 143 145 146 149 151 152 155 158 155 156 159 159 159 159 165 170 170 180 211 251 286 293 299 307 315 318 319 323 325 326 328 328 331 336 338 339 340 342 346 345 343
153 155 154 157 152 150 153 156 162 145 143 146 146 147 148 151 154 155 156 156 158 161 163 163 166 173 178 183 200 221 234 254 274 289 295 299 306 312 316 317 319 323 326 327 327 327 329 334 336 339 340 343 343 342
149 151 155 160 161 156 148 141 143 144 142 145 141 148 151 153 156 158 163 166 170 169 172 179 189 197 210 224 238 253 268 280 288 289 293 299 303 307 311 314 317 320 323 323 324 325 327 330 334 336 337 339 340 339
124 129 133 137 140 141 141 141 143 145 148 151 154 157 161 165 169 171 176 177 182 189 196 205 218 230 241 248 257 269 278 286 289 291 296 303 305 308 311 314 315 316 317 320 322 324 326 328 332 333 333 336 336 336
136 140 142 143 148 147 147 153 155 157 158 162 166 169 173 177 183 186 190 195 201 209 217 227 236 246 257 267 275 282 284 287 291 296 301 305 307 309 310 311 313 315 317 318 320 322 324 327 329 330 330 332 332 333
146 149 151 154 154 155 157 162 166 169 173 178 182 186 190 194 201 206 213 218 224 231 238 245 253 257 263 270 277 283 289 292 296 299 301 301 303 305 306 309 311 314 316 317 319 321 323 326 326 327 328 329 329 330
158 161 160 162 166 170 174 178 181 184 188 193 199 203 208 219 220 223 230 242 243 247 253 257 261 266 271 277 281 285 286 289 290 293 295 299 303 303 307 309 311 312 313 317 318 320 322 323 324 324 325 326 327 327